Whiteclay, NE

9:09 PM MDT on August 28, 2016 (GMT -0600)
Pine Ridge

Weather History for KIEN - February, 2014

Change the Weather History Date:

Saturday, February 8, 2014

  Actual Average Record
Temperature  
Mean Temperature 10 °F 25 °F  
Max Temperature 21 °F 38 °F 64 °F (2015)
Min Temperature -2 °F 12 °F -16 °F (2011)
Degree Days  
Heating Degree Days 55 40  
Month to date heating degree days 491 323  
Since 1 July heating degree days 4676 4600  
Cooling Degree Days 0 0  
Month to date cooling degree days 0 0  
Year to date cooling degree days 0 0  
Moisture  
Dew Point 8 °F    
Average Humidity 78    
Maximum Humidity 88    
Minimum Humidity 67    
Precipitation  
Precipitation 0.01 in 0.02 in 0.01 in (2001)
Month to date precipitation 0.02 0.15  
Year to date precipitation 0.11 0.47  
Sea Level Pressure  
Sea Level Pressure 30.08 in    
Wind  
Wind Speed 6 mph (NNE)    
Max Wind Speed 16 mph    
Max Gust Speed 23 mph    
Visibility 5 miles    
Events Snow    
T = Trace of Precipitation, MM = Missing Value Source: NWS Daily Summary

Daily Weather History Graph

Daily Weather History Graph

Search for Another Location

Airport or City:

Trip Planner

Search our weather history database for the weather conditions in past years. The results will help you decide how hot, cold, wet, or windy it might be!

Date:

Astronomy

Feb. 08, 2014 Rise Set
Actual Time 6:56 AM MST 5:12 PM MST
Civil Twilight 6:27 AM MST 5:41 PM MST
Nautical Twilight 5:53 AM MST 6:15 PM MST
Astronomical Twilight 5:20 AM MST 6:48 PM MST
Moon 12:05 PM MST (2/8) 2:13 AM MST (2/8)
Length of Visible Light 11h 14m
Length of Day
10h 15m
Waxing Gibbous, 69% of the Moon is Illuminated
Feb 8
Waxing Gibbous
Feb 14
Full
Feb 22
Last Quarter
Mar 1
New
Mar 8
First Quarter

Hourly Weather History & Observations

Time (MST) Temp. Windchill Dew Point Humidity Pressure Visibility Wind Dir Wind Speed Gust Speed Precip Events Conditions
12:52 AM 10.9 °F -1.8 °F 3.9 °F 73% 30.01 in 10.0 mi West 9.2 mph - N/A   Partly Cloudy
1:52 AM 10.0 °F 1.8 °F 3.0 °F 73% 30.01 in 10.0 mi West 4.6 mph - N/A   Mostly Cloudy
2:52 AM 5.0 °F - 1.0 °F 84% 30.03 in 10.0 mi Calm Calm - N/A   Clear
3:52 AM 1.0 °F - -2.9 °F 83% 30.04 in 10.0 mi Calm Calm - N/A   Clear
4:52 AM -0.9 °F -11.0 °F -5.1 °F 83% 30.05 in 10.0 mi East 4.6 mph - N/A   Clear
5:52 AM -0.9 °F - -5.1 °F 83% 30.06 in 10.0 mi Calm Calm - N/A   Scattered Clouds
6:52 AM 1.0 °F -8.7 °F -4.0 °F 79% 30.06 in 10.0 mi East 4.6 mph - N/A   Mostly Cloudy
7:52 AM 7.0 °F - 3.0 °F 84% 30.05 in 10.0 mi Calm Calm - N/A   Overcast
8:52 AM 10.0 °F - 6.1 °F 84% 30.07 in 10.0 mi Calm Calm - N/A   Overcast
9:52 AM 17.1 °F - 9.0 °F 71% 30.06 in 10.0 mi Calm Calm - N/A   Overcast
10:52 AM 19.9 °F 11.1 °F 12.0 °F 71% 30.07 in 8.0 mi NE 6.9 mph - 0.00 in Snow Light Snow
11:02 AM 19.4 °F 10.4 °F 12.2 °F 74% 29.91 in 2.5 mi NE 6.9 mph - 0.00 in Snow Light Snow
11:11 AM 19.4 °F 9.5 °F 12.2 °F 74% 29.91 in 1.5 mi NE 8.1 mph - 0.00 in Snow Light Snow
11:25 AM 19.4 °F 11.5 °F 12.2 °F 74% 29.90 in 2.0 mi ENE 5.8 mph - 0.00 in Snow Light Snow
11:40 AM 19.4 °F 9.5 °F 12.2 °F 74% 29.90 in 3.0 mi NE 8.1 mph - 0.00 in Snow Light Snow
11:52 AM 19.9 °F 12.1 °F 12.9 °F 74% 30.06 in 6.0 mi ENE 5.8 mph - 0.00 in Snow Light Snow
12:13 PM 19.4 °F 10.4 °F 12.2 °F 74% 29.91 in 2.0 mi ENE 6.9 mph - 0.00 in Snow Light Snow
12:36 PM 19.4 °F 11.5 °F 14.0 °F 80% 29.92 in 1.8 mi ENE 5.8 mph - 0.00 in Snow Light Snow
12:52 PM 19.9 °F 12.1 °F 15.1 °F 81% 30.07 in 0.8 mi ENE 5.8 mph - 0.00 in Snow Light Snow
1:04 PM 19.4 °F 12.8 °F 14.0 °F 80% 29.93 in 1.0 mi NNE 4.6 mph - 0.00 in Snow Light Snow
1:27 PM 21.2 °F 12.6 °F 14.0 °F 74% 29.93 in 2.5 mi NE 6.9 mph - 0.00 in Snow Light Snow
1:37 PM 21.2 °F 12.6 °F 15.8 °F 80% 29.93 in 0.8 mi NE 6.9 mph - 0.00 in Snow Light Snow
1:52 PM 19.9 °F 11.1 °F 15.1 °F 81% 30.09 in 1.0 mi NNE 6.9 mph - 0.00 in Snow Light Snow
2:52 PM 19.0 °F 10.0 °F 14.0 °F 81% 30.13 in 1.2 mi NE 6.9 mph - 0.01 in Snow Light Snow
3:03 PM 17.6 °F 5.7 °F 12.2 °F 79% 29.96 in 1.2 mi NE 10.4 mph - 0.00 in Snow Light Snow
3:43 PM 17.6 °F 6.4 °F 12.2 °F 79% 29.98 in 0.5 mi NE 9.2 mph - 0.00 in Snow Snow
3:52 PM 18.0 °F 8.7 °F 12.9 °F 81% 30.18 in 0.5 mi NNE 6.9 mph - 0.00 in Snow Snow
3:58 PM 17.6 °F 5.0 °F 12.2 °F 79% 29.99 in 1.0 mi North 11.5 mph 19.6 mph 0.00 in Snow Light Snow
4:11 PM 17.6 °F 5.0 °F 12.2 °F 79% 29.99 in 2.5 mi NE 11.5 mph - 0.00 in Snow Light Snow
4:23 PM 17.6 °F 5.7 °F 10.4 °F 73% 29.99 in 2.0 mi NNE 10.4 mph - 0.00 in Snow Light Snow
4:50 PM 15.8 °F 0.3 °F 10.4 °F 79% 30.00 in 4.0 mi NNE 16.1 mph 20.7 mph 0.00 in Snow Light Snow
4:52 PM 16.0 °F 1.1 °F 10.0 °F 77% 30.21 in 4.0 mi NNE 15.0 mph 23.0 mph 0.00 in Snow Light Snow
5:52 PM 14.0 °F 0.5 °F 8.1 °F 77% 30.26 in 8.0 mi NNE 11.5 mph - 0.00 in Snow Light Snow
6:34 PM 12.2 °F -0.2 °F 6.8 °F 79% 30.12 in 5.0 mi North 9.2 mph - 0.00 in Snow Light Snow
6:49 PM 12.2 °F 2.9 °F 6.8 °F 79% 30.11 in 2.0 mi North 5.8 mph - 0.00 in Snow Light Snow
6:52 PM 12.9 °F 2.6 °F 7.0 °F 77% 30.32 in 2.0 mi North 6.9 mph - 0.00 in Snow Light Snow
7:09 PM 12.2 °F -1.0 °F 6.8 °F 79% 30.13 in 3.0 mi North 10.4 mph - 0.00 in Snow Light Snow
7:24 PM 12.2 °F -0.2 °F 3.2 °F 67% 30.13 in 9.0 mi North 9.2 mph - 0.00 in   Overcast
7:52 PM 12.0 °F -0.4 °F 3.0 °F 67% 30.33 in 10.0 mi NNE 9.2 mph - 0.00 in   Overcast
8:52 PM 10.9 °F -2.6 °F 6.1 °F 81% 30.35 in 4.0 mi North 10.4 mph - 0.00 in Snow Light Snow
9:52 PM 9.0 °F -5.9 °F 3.9 °F 80% 30.37 in 6.0 mi North 11.5 mph 17.3 mph 0.00 in Snow Light Snow
10:16 PM 8.6 °F -4.7 °F 3.2 °F 79% 30.19 in 2.5 mi NNE 9.2 mph - 0.00 in Snow Light Snow
10:26 PM 8.6 °F -4.7 °F 3.2 °F 79% 30.19 in 3.0 mi North 9.2 mph - 0.00 in Snow Light Snow
10:52 PM 8.1 °F -6.2 °F 3.0 °F 80% 30.35 in 3.0 mi NNE 10.4 mph - 0.00 in Snow Light Snow
11:52 PM 7.0 °F -8.3 °F 1.0 °F 77% 30.36 in 6.0 mi North 11.5 mph - 0.00 in Snow Light Snow